Location: Banios
(43.0451°N, 0.2335°E)
Time: 13:27:05
(UTC+00:00)

A-11 Canister half - Pass Details

Date: 17 May 2021
Orbit: 1513 x 1686 km, 47.2° (Epoch: 14 June)

Event Time Altitude Azimuth Distance (km) Brightness Sun altitude
Rises 18:03:52 0° 290° (WNW) 4,658 13.7 11.7°
Reaches altitude 10° 18:06:53 10° 291° (WNW) 3,675 14.3 11.2°
Maximum altitude 18:16:10 85° 20° (NNE) 1,536 9.3 9.5°
Drops below altitude 10° 18:25:38 10° 110° (ESE) 3,741 10.4 7.9°
Sets 18:28:44 0° 111° (ESE) 4,745 10.9 7.4°
